Location: Engelmannsreuth
(49.8125°N, 11.6497°E)
Time: 05:12:52
(UTC+00:00)

Cosmos 2061 Rocket - Pass Details

Date: 17 February 2020
Orbit: 965 x 1014 km, 82.9° (Epoch: 28 March)

Event Time Altitude Azimuth Distance (km) Brightness Sun altitude
Rises 04:59:51 0° 349° (N) 3,721 6.9 -13.7°
Reaches altitude 10° 05:02:23 10° 350° (N) 2,761 6.2 -13.3°
Maximum altitude 05:08:44 86° 263° (W) 990 4.0 -12.3°
Drops below altitude 10° 05:14:57 10° 175° (S) 2,710 6.5 -11.3°
Sets 05:17:26 0° 175° (S) 3,649 7.2 -10.9°
